Time,TemperatureF,DewpointF,PressureIn,WindDirection,WindDirectionDegrees,WindSpeedMPH,WindSpeedGustMPH,Humidity,HourlyPrecipIn,Conditions,Clouds,dailyrainin,SolarRadiationWatts/m^2,SoftwareType,DateUTC
2013-04-30 03:32:00,59.0,56.0,-100.00,SE,136,8.0,12.0,89,-99.99,,,0.07,0.000000,,2013-04-30 08:32:00,
2013-04-30 03:42:00,59.0,56.0,-100.00,SE,136,8.0,12.0,89,-99.99,,,0.07,0.000000,,2013-04-30 08:42:00,
2013-04-30 03:52:00,59.0,56.0,-100.00,SE,136,8.0,12.0,89,-99.99,,,0.07,0.000000,,2013-04-30 08:52:00,
2013-04-30 04:01:00,59.0,56.0,-100.00,SE,136,8.0,12.0,89,-99.99,,,0.07,0.000000,,2013-04-30 09:01:00,
2013-04-30 11:33:00,78.0,57.0,-100.00,SSW,213,15.0,27.0,48,-99.99,,,0.00,631.000000,,2013-04-30 16:33:00,
2013-04-30 11:42:00,78.0,57.0,-100.00,SSW,213,15.0,27.0,48,-99.99,,,0.00,631.000000,,2013-04-30 16:42:00,
2013-04-30 11:52:00,78.0,57.0,-100.00,SSW,213,15.0,27.0,48,-99.99,,,0.00,631.000000,,2013-04-30 16:52:00,
2013-04-30 12:02:00,78.0,57.0,-100.00,SSW,213,15.0,27.0,48,-99.99,,,0.00,631.000000,,2013-04-30 17:02:00,
2013-04-30 13:32:00,81.0,55.0,-100.00,SSW,205,19.0,29.0,41,-99.99,,,-99.99,754.000000,,2013-04-30 18:32:00,
2013-04-30 13:42:00,81.0,55.0,-100.00,SSW,205,19.0,29.0,41,-99.99,,,-99.99,754.000000,,2013-04-30 18:42:00,
2013-04-30 13:52:00,81.0,55.0,-100.00,SSW,205,19.0,29.0,41,-99.99,,,-99.99,754.000000,,2013-04-30 18:52:00,
2013-04-30 14:01:00,81.0,55.0,-100.00,SSW,205,19.0,29.0,41,-99.99,,,-99.99,754.000000,,2013-04-30 19:01:00,
2013-04-30 14:32:00,83.0,54.0,-100.00,SSW,204,20.0,30.0,37,0.00,,,-99.99,788.000000,,2013-04-30 19:32:00,
2013-04-30 14:42:00,83.0,54.0,-100.00,SSW,204,20.0,30.0,37,0.00,,,-99.99,788.000000,,2013-04-30 19:42:00,
2013-04-30 14:52:00,83.0,54.0,-100.00,SSW,204,20.0,30.0,37,0.00,,,-99.99,788.000000,,2013-04-30 19:52:00,
2013-04-30 15:02:00,83.0,54.0,-100.00,SSW,204,20.0,30.0,37,0.00,,,-99.99,788.000000,,2013-04-30 20:02:00,
2013-04-30 15:32:00,83.0,54.0,-100.00,WSW,237,16.0,30.0,37,0.00,,,0.00,580.000000,,2013-04-30 20:32:00,
2013-04-30 15:42:00,83.0,54.0,-100.00,WSW,237,16.0,30.0,37,0.00,,,0.00,580.000000,,2013-04-30 20:42:00,
2013-04-30 15:52:00,83.0,54.0,-100.00,WSW,237,16.0,30.0,37,0.00,,,0.00,580.000000,,2013-04-30 20:52:00,
2013-04-30 16:02:00,83.0,54.0,-100.00,WSW,237,16.0,30.0,37,0.00,,,0.00,580.000000,,2013-04-30 21:02:00,
2013-04-30 16:32:00,83.0,55.0,-100.00,SW,233,13.0,22.0,38,0.00,,,-99.99,380.000000,,2013-04-30 21:32:00,
2013-04-30 16:42:00,83.0,55.0,-100.00,SW,233,13.0,22.0,38,0.00,,,-99.99,380.000000,,2013-04-30 21:42:00,
2013-04-30 16:53:00,83.0,55.0,-100.00,SW,233,13.0,22.0,38,0.00,,,-99.99,380.000000,,2013-04-30 21:53:00,
2013-04-30 17:02:00,83.0,55.0,-100.00,SW,233,13.0,22.0,38,0.00,,,-99.99,380.000000,,2013-04-30 22:02:00,
2013-04-30 17:33:00,83.0,52.0,-100.00,WSW,237,13.0,22.0,34,0.00,,,0.00,465.000000,,2013-04-30 22:33:00,
2013-04-30 17:42:00,83.0,52.0,-100.00,WSW,237,13.0,22.0,34,0.00,,,0.00,465.000000,,2013-04-30 22:42:00,
2013-04-30 17:53:00,83.0,52.0,-100.00,WSW,237,13.0,22.0,34,0.00,,,0.00,465.000000,,2013-04-30 22:53:00,
2013-04-30 18:02:00,83.0,52.0,-100.00,WSW,237,13.0,22.0,34,0.00,,,0.00,465.000000,,2013-04-30 23:02:00,
2013-04-30 18:32:00,81.0,51.0,-100.00,SW,216,9.0,16.0,35,0.00,,,0.00,240.000000,,2013-04-30 23:32:00,
2013-04-30 18:42:00,81.0,51.0,-100.00,SW,216,9.0,16.0,35,0.00,,,0.00,240.000000,,2013-04-30 23:42:00,
2013-04-30 18:52:00,81.0,51.0,-100.00,SW,216,9.0,16.0,35,0.00,,,0.00,240.000000,,2013-04-30 23:52:00,
2013-04-30 19:02:00,81.0,51.0,-100.00,SW,216,9.0,16.0,35,0.00,,,0.00,240.000000,,2013-05-01 00:02:00,
2013-04-30 19:32:00,78.0,53.0,-100.00,WSW,244,7.0,18.0,42,0.00,,,-99.99,46.000000,,2013-05-01 00:32:00,
2013-04-30 19:42:00,78.0,53.0,-100.00,WSW,244,7.0,18.0,42,0.00,,,-99.99,46.000000,,2013-05-01 00:42:00,
2013-04-30 19:52:00,78.0,53.0,-100.00,WSW,244,7.0,18.0,42,0.00,,,-99.99,46.000000,,2013-05-01 00:52:00,
2013-04-30 20:01:00,78.0,53.0,-100.00,WSW,244,7.0,18.0,42,0.00,,,-99.99,46.000000,,2013-05-01 01:01:00,
2013-04-30 20:32:00,70.0,46.0,-100.00,WNW,297,9.0,20.0,42,0.00,,,-99.99,24.000000,,2013-05-01 01:32:00,
2013-04-30 20:42:00,70.0,46.0,-100.00,WNW,297,9.0,20.0,42,0.00,,,-99.99,24.000000,,2013-05-01 01:42:00,
2013-04-30 20:52:00,70.0,46.0,-100.00,WNW,297,9.0,20.0,42,0.00,,,-99.99,24.000000,,2013-05-01 01:52:00,
2013-04-30 21:02:00,70.0,46.0,-100.00,WNW,297,9.0,20.0,42,0.00,,,-99.99,24.000000,,2013-05-01 02:02:00,
2013-04-30 21:32:00,67.0,48.0,-100.00,NW,305,9.0,17.0,50,0.00,,,-99.99,0.000000,,2013-05-01 02:32:00,
2013-04-30 21:42:00,67.0,48.0,-100.00,NW,305,9.0,17.0,50,0.00,,,-99.99,0.000000,,2013-05-01 02:42:00,
2013-04-30 21:52:00,67.0,48.0,-100.00,NW,305,9.0,17.0,50,0.00,,,-99.99,0.000000,,2013-05-01 02:52:00,
2013-04-30 22:02:00,67.0,48.0,-100.00,NW,305,9.0,17.0,50,0.00,,,-99.99,0.000000,,2013-05-01 03:02:00,
2013-04-30 22:33:00,62.0,39.0,-100.00,NW,306,16.0,23.0,42,0.00,,,-99.99,0.000000,,2013-05-01 03:33:00,
2013-04-30 22:43:00,62.0,39.0,-100.00,NW,306,16.0,23.0,42,0.00,,,-99.99,0.000000,,2013-05-01 03:43:00,
2013-04-30 22:53:00,62.0,39.0,-100.00,NW,306,16.0,23.0,42,0.00,,,-99.99,0.000000,,2013-05-01 03:53:00,
2013-04-30 23:03:00,62.0,39.0,-100.00,NW,306,16.0,23.0,42,0.00,,,-99.99,0.000000,,2013-05-01 04:03:00,
2013-04-30 23:32:00,56.0,44.0,-100.00,NW,325,7.0,26.0,65,0.00,,,-99.99,0.000000,,2013-05-01 04:32:00,
2013-04-30 23:43:00,56.0,44.0,-100.00,NW,325,7.0,26.0,65,0.00,,,-99.99,0.000000,,2013-05-01 04:43:00,
2013-04-30 23:52:00,56.0,44.0,-100.00,NW,325,7.0,26.0,65,0.00,,,-99.99,0.000000,,2013-05-01 04:52:00,